#timestamp,LO_Frequency,Hit,StdDev 
1588518015.2,286047004.0,N
1588518035.1,286047004.3,N
1588518036.0,286047004.3,N
1588518055.8,286047000.0,N
1588518075.6,286047001.2,N
1588518095.5,286046999.5,N
1588518115.3,286046998.1,N
1588518135.2,286046998.9,N
1588518155.9,286046997.0,N
1588518175.7,286046997.0,N
1588518195.6,286046997.3,N
1588518215.4,286046995.4,N
1588518235.2,286046995.8,N
1588518255.1,286046995.1,N
1588518256.0,286046995.1,N
1588518275.8,286046995.8,N
1588518295.7,286046995.8,N
1588518315.5,286046994.0,N
1588518335.3,286046992.4,N
1588518355.2,286046991.9,N
1588518375.0,286046992.4,N
1588518375.9,286046992.4,N
1588518395.7,286046994.8,N
1588518415.6,286046994.7,N
1588518435.4,286046991.7,N
1588518455.3,286046993.0,N
1588518475.1,286046990.5,N
1588518476.0,286046990.5,N
1588518495.8,286046991.2,N
1588518515.7,286046992.7,N
1588518535.5,286046992.8,N
1588518555.3,286046992.9,N
1588518575.2,286046994.8,N
1588518595.0,286046994.6,N
1588518595.9,286046994.6,N
1588518615.8,286046991.7,Y
1588518635.6,286046996.6,P
1588518655.4,286047000.5,N
1588518675.3,286047001.0,N
1588518695.1,286047000.7,N
1588518715.9,286046999.2,N
1588518735.7,286046998.6,N
1588518755.5,286047001.0,N
1588518775.4,286047000.3,N
1588518795.2,286047000.4,N
1588518815.0,286046998.5,N
1588518815.9,286046998.5,N
1588518835.8,286046998.3,N
1588518855.6,286046999.4,N
1588518875.5,286046998.3,N
1588518895.3,286046998.5,N
1588518915.1,286046998.4,N
1588518935.9,286047001.2,N
1588518955.7,286046998.5,N
1588518975.5,286046999.7,N
1588518995.4,286047002.3,N
1588519015.2,286046999.8,N
1588519035.1,286047000.7,N
1588519036.0,286047000.7,N
1588519055.8,286046999.5,N
1588519075.6,286046996.6,N
1588519095.5,286046997.3,N
1588519115.3,286046996.9,N
1588519135.1,286046997.0,N
1588519155.9,286046999.3,N
1588519175.7,286046999.3,N
1588519195.6,286046998.4,N
1588519215.4,286047000.3,N
1588519235.2,286047000.7,N
1588519255.1,286047000.8,N
1588519256.0,286047000.8,N
1588519275.8,286047000.1,N
1588519295.6,286047000.0,N
1588519315.5,286047002.7,N
1588519335.3,286046999.9,N
1588519355.2,286047000.5,N
1588519375.9,286047000.0,N
1588519395.7,286047000.6,N
1588519415.6,286047000.0,N
1588519435.4,286046999.7,N
1588519455.2,286047002.3,N
1588519475.1,286047002.4,N
1588519476.0,286047002.4,N
1588519495.8,286047002.7,N
1588519515.7,286047000.4,N
1588519535.5,286047002.4,N
1588519555.3,286047001.8,N
1588519575.2,286047003.9,N
1588519595.0,286047003.0,N
1588519595.9,286047003.0,N
1588519615.7,286047001.4,N
1588519635.6,286047004.3,N
1588519655.4,286047001.9,N
1588519675.3,286047001.6,N
1588519695.1,286047003.9,N
1588519696.0,286047003.9,N
1588519715.8,286047002.4,N
1588519735.7,286047002.3,N
1588519755.5,286047001.9,N
1588519775.4,286047004.2,Y
1588519795.2,286047001.8,P
1588519815.0,286047002.4,P
1588519815.9,286047002.4,P
1588519835.8,286047002.8,Y
1588519855.6,286046998.4,P
1588519875.4,286047011.9,P
1588519895.3,286046999.5,N
1588519915.1,286046996.8,N
1588519935.9,286046999.6,N
1588519955.7,286046996.7,N
1588519975.5,286046998.6,N
1588519995.4,286046998.6,N
1588520015.2,286046999.2,N
1588520035.0,286046996.6,N
1588520035.9,286046996.6,N
1588520055.8,286046997.4,N
1588520075.6,286046996.5,N
1588520095.5,286046996.7,N
1588520115.3,286046997.3,N
1588520135.1,286046997.6,N
1588520155.9,286046996.5,N
1588520175.7,286046997.1,N
1588520195.5,286046997.2,N
1588520215.4,286046995.0,N
1588520235.2,286046997.7,N
1588520255.1,286046997.3,N
1588520256.0,286046997.3,N
1588520275.8,286046997.0,N
1588520295.6,286046996.8,N
1588520315.5,286046997.9,N
1588520335.3,286046997.2,N
1588520355.1,286046997.9,N
1588520375.9,286046994.9,N
1588520395.7,286046997.4,N
1588520415.6,286046997.0,N
1588520435.4,286046999.2,N
1588520455.2,286046999.2,N
1588520475.1,286046997.0,N
1588520476.0,286046997.0,N
1588520495.8,286046999.5,N
1588520515.6,286046998.0,N
1588520535.5,286046997.0,N
1588520555.3,286046999.4,N
1588520575.2,286046998.4,N
1588520595.9,286046998.4,N
1588520615.7,286046999.4,N
1588520635.6,286046998.9,N
1588520655.4,286046996.8,N
1588520675.2,286046998.7,N
1588520695.1,286046996.6,Y
1588520696.0,286046996.6,P
1588520715.8,286047001.2,N
1588520735.7,286046999.0,N
1588520755.5,286046999.3,N
1588520775.3,286046998.6,N
1588520795.2,286047001.1,N
1588520815.0,286046999.5,N
1588520815.9,286046999.5,N
1588520835.7,286046998.9,N
1588520855.6,286046998.6,N
1588520875.4,286047000.5,N
1588520895.3,286046999.9,N
1588520915.1,286047000.2,N
1588520916.0,286047000.2,N
1588520935.8,286047000.0,N
1588520955.7,286047000.0,N
1588520975.5,286046999.8,N
1588520995.4,286047001.3,N
1588521015.2,286047002.6,N
1588521035.0,286047002.4,N
1588521035.9,286047002.4,N
1588521055.8,286047001.6,N
1588521075.6,286047002.4,N
1588521095.4,286047002.4,N
1588521115.3,286047001.8,N
1588521135.1,286047001.9,N
1588521155.9,286047004.2,N
1588521175.7,286047004.2,N
1588521195.5,286047003.1,N
1588521215.4,286047001.5,N
1588521235.2,286047002.0,N
1588521255.0,286047001.3,N
1588521255.9,286047001.3,N
1588521275.8,286047004.1,N
1588521295.6,286047004.2,N
1588521315.5,286047003.2,N
1588521335.3,286047001.4,N
1588521355.1,286047002.2,N
1588521375.9,286046999.8,N
1588521395.7,286047004.2,N
1588521415.6,286047003.7,N
1588521435.4,286047002.3,N
1588521455.2,286047001.9,N
1588521475.1,286047002.8,N
1588521476.0,286047002.8,N
1588521495.8,286047002.8,N
1588521515.6,286046999.7,N
1588521535.5,286047002.0,N
1588521555.3,286047004.2,Y
1588521575.2,286047000.4,P
1588521595.0,286047000.9,N
1588521595.9,286047000.9,N
